Regional Weather Roundup
Issued by NWS Goodland, KS

Home | Current Version | Previous Version | Text Only | Print | Product List | Glossary Off
Versions: 1 2 3 4 5 6 7 8 9 10 11 12 13 14 15 16 17 18 19 20 21 22 23 24 25 26 27 28 29 30 31 32 33 34 35 36 37 38 39 40 41 42 43 44 45 46 47 48 49 50

000
ASUS43 KGLD 270408
RWRGLD

GOODLAND FORECAST AREA HOURLY WEATHER ROUNDUP
NATIONAL WEATHER SERVICE GOODLAND KS
1000 PM MDT TUE AUG 26 2014

...OFFICIAL OBSERVATIONS...

CITY           SKY/WX    TMP DP  RH WIND       PRES   REMARKS
GOODLAND KS    TSTM      65  62  90 S18G24    30.20R
HILL CITY KS   MOCLDY    75  65  70 E3        30.10R
IMPERIAL NEB   CLOUDY    70  65  84 E6        30.14R
MCCOOK NEB     CLOUDY    72  68  87 E8        30.11R
AKRON CO       CLOUDY    67  62  84 SE6       30.18S
BURLINGTON CO  LGT RAIN  65  58  78 SW10      30.19F
LIMON CO       CLOUDY    65  60  84 S7        30.24R
$$

...UNOFFICIAL OBSERVATIONS...

CITY           SKY/WX    TMP DP  RH WIND       PRES   REMARKS
COLBY KS       LGT RAIN  72  66  83 W9        30.17R
GOVE KS          N/A     77  32  19 CALM        N/A
NORTON KS      CLEAR     73  61  64 E6        30.10R
SHARON SPRINGS   N/A     65  63  93 W5          N/A
WAKEENEY KS      N/A     76  62  63 MISG        N/A
KIT CARSON CO    N/A     66  60  82 MISG        N/A
YUMA CO          N/A     68  62  79 SE10        N/A
$$



USA.gov is the U.S. government's official web portal to all federal, state and local government web resources and services.